Helicity
34 34 35 37 38 41 42 40 37 33 28 22 19 10 2 4 37 17 53 41 40 36 36 37 21 16 8 3 22 11 2 9 13
22 22 24 24 25 26 25 25 25 24 20 22 19 15 12 15 52 50 35 26 43 41 44 52 45 54 28 8 4 0 -1 -2 1
17 12 13 11 12 16 16 14 16 15 16 17 14 22 33 62 60 51 42 63 56 68 75 78 94 98 79 103 61 60 49 22 8
22 16 11 11 13 15 17 19 18 19 18 13 17 37 55 62 75 64 59 80 75 75 68 93 125 108 120 138 136 128 112 108 111
38 18 15 17 21 23 22 22 20 16 15 17 39 62 92 83 69 74 78 86 93 75 109 123 111 95 107 121 121 106 121 131 136
65 29 29 33 30 24 24 21 23 25 17 29 50 75 64 78 63 68 89 92 95 110 120 115 108 103 117 111 114 111 113 114 122
57 48 45 43 38 39 30 27 30 29 15 32 54 57 83 75 73 82 121 123 101 149 124 115 109 107 95 90 90 93 99 104 105
72 56 44 45 44 39 42 41 37 43 45 51 62 69 91 79 83 85 101 99 120 147 114 103 105 102 95 82 74 79 80 78 83
87 69 54 60 37 53 55 57 65 77 71 72 75 83 93 78 78 84 113 115 147 140 102 95 95 98 85 79 71 71 71 73 71
90 86 84 63 59 62 83 86 95 92 88 78 74 80 99 79 78 76 110 107 133 122 100 91 88 92 90 81 74 69 67 71 73
79 118 111 118 107 130 112 115 106 101 84 89 69 73 91 90 85 82 85 102 108 104 97 91 88 86 82 77 72 71 67 69 72
135 159 160 160 172 177 163 158 134 127 100 99 79 68 69 89 88 84 80 85 93 83 84 81 84 82 83 81 80 77 75 79 81
210 216 208 208 204 173 180 161 164 138 112 78 74 70 70 72 92 89 87 77 76 79 80 77 81 75 80 90 84 80 86 89 91
267 248 213 217 224 199 172 167 136 129 107 75 63 57 58 59 81 96 87 66 69 63 45 55 91 93 95 80 87 86 87 91 95
317 265 224 243 262 231 193 164 155 116 97 72 60 41 44 47 52 63 64 74 80 75 66 83 74 79 65 66 81 87 84 85 103
347 286 270 262 268 227 189 187 149 139 108 87 76 67 49 39 25 44 67 65 66 70 84 72 60 63 59 62 72 74 76 93 90
363 329 307 294 306 271 214 214 189 154 131 93 84 86 68 36 37 54 63 87 96 92 82 70 65 56 59 53 73 66 76 82 88
417 375 380 359 326 280 217 200 194 174 127 107 78 84 62 56 53 77 103 125 121 127 121 100 72 65 69 71 68 57 57 61 58
477 417 464 417 356 302 238 217 201 167 118 103 97 90 82 68 73 88 103 154 175 139 110 93 93 86 91 82 66 50 55 56 65
493 490 469 417 342 301 264 280 237 192 144 103 86 91 91 107 114 93 113 143 121 111 126 102 104 122 116 104 83 56 62 65 65
Wind_Speed
28 29 29 28 27 26 25 26 26 28 29 30 31 31 32 36 39 29 32 35 39 39 39 37 38 38 38 37 32 34 37 35 35
28 28 28 28 27 27 27 27 27 28 29 30 32 33 35 38 39 32 34 38 41 39 39 40 39 40 40 36 34 36 37 35 34
26 26 27 27 27 27 28 27 28 29 30 32 33 35 37 40 32 34 37 38 39 40 40 39 41 41 40 43 39 40 43 40 37
24 25 25 26 26 26 27 28 28 29 31 33 34 35 37 37 32 36 38 39 39 40 39 38 39 41 41 42 42 43 43 44 43
20 22 23 24 24 25 26 27 28 30 32 33 35 38 40 32 34 37 39 39 37 39 37 39 40 41 41 42 42 43 43 43 42
18 19 21 22 23 25 26 27 28 30 32 35 38 37 38 34 35 37 39 38 38 36 38 39 41 40 40 43 44 43 44 43 43
16 17 19 20 22 24 26 27 29 31 32 37 36 39 39 34 36 37 38 39 38 35 38 40 41 41 41 43 44 45 45 44 44
14 15 17 19 21 24 26 28 30 32 33 35 38 39 38 36 37 39 40 40 34 36 39 41 42 42 43 44 45 46 45 45 45
9 12 13 16 19 23 26 28 31 33 36 37 39 40 39 36 38 39 39 38 36 35 39 41 42 43 44 45 46 47 47 47 46
6 10 10 12 15 20 24 27 30 33 36 38 39 41 40 36 37 38 38 37 35 36 39 41 43 44 46 47 49 49 49 49 49
5 9 10 11 14 20 21 25 30 34 37 39 39 39 39 37 35 35 37 35 34 36 40 43 45 47 49 51 52 52 51 51 52
8 7 6 15 20 21 22 27 30 33 37 39 40 38 39 38 33 33 34 35 35 37 40 45 49 50 50 53 54 54 54 54 56
4 5 10 16 18 20 23 26 30 33 37 41 40 39 38 39 34 31 33 35 36 38 41 46 51 52 54 56 57 58 56 58 59
8 9 11 12 15 17 22 28 29 33 37 41 40 38 40 39 33 34 33 34 37 38 42 47 51 52 56 59 61 59 58 61 61
10 10 9 9 11 16 21 24 29 33 39 39 41 38 38 37 36 34 35 37 38 42 44 46 48 54 59 60 61 63 61 61 63
13 12 9 8 9 12 16 21 26 35 39 39 41 39 38 39 38 36 39 41 40 43 45 46 51 57 58 59 63 65 64 63 65
16 13 12 10 11 11 13 15 25 32 36 37 40 45 43 43 43 40 39 44 44 44 47 52 57 57 56 59 66 64 63 67 68
18 15 14 12 12 12 13 16 22 31 36 36 38 46 49 51 47 44 43 48 51 51 57 60 62 59 58 63 64 61 63 67 69
18 16 15 12 12 14 14 17 22 26 28 34 38 40 42 52 58 49 47 51 55 60 66 68 66 65 66 65 61 60 64 69 71
20 19 16 14 14 14 14 18 23 26 26 32 37 41 44 46 51 63 56 58 63 69 65 72 73 70 70 68 65 64 68 72 78
Wind_Direction
34 34 35 33 28 24 18 14 11 9 9 8 6 4 2 358 352 17 17 8 1 358 356 358 355 353 349 345 357 353 347 349 348
36 35 34 32 29 25 22 18 15 13 12 9 3 357 351 346 351 11 10 2 355 356 355 349 350 350 347 348 352 349 350 350 352
39 36 33 29 27 27 24 21 17 14 9 2 359 352 346 346 11 5 1 2 359 357 355 353 356 353 349 355 356 352 347 343 341
45 41 34 28 28 25 22 18 13 9 4 359 356 353 352 356 9 2 1 360 356 352 352 356 354 350 353 354 353 350 349 352 352
54 42 34 28 25 20 13 9 8 5 360 358 354 348 354 17 7 3 1 360 357 351 352 350 348 347 351 349 349 345 348 349 351
67 47 37 31 20 12 6 3 0 356 353 350 350 355 359 8 5 4 1 358 353 355 351 349 347 348 349 346 345 346 347 347 345
58 49 36 23 15 8 360 356 353 353 347 344 350 350 352 3 0 1 358 353 351 354 350 347 345 346 347 346 347 345 347 345 344
38 35 20 10 6 357 355 351 350 350 351 350 349 349 351 356 355 353 351 345 350 351 346 345 344 343 344 346 346 347 348 346 343
32 23 23 15 0 356 349 346 347 346 345 345 346 346 347 351 349 349 351 350 351 349 345 344 344 345 344 344 344 344 345 344 341
354 7 14 18 13 1 353 348 346 345 345 346 345 344 345 350 350 350 352 352 354 350 344 340 340 343 341 341 341 339 342 340 337
319 334 349 10 5 354 353 349 344 341 341 341 345 348 348 349 352 353 353 355 357 352 344 337 335 335 336 337 336 335 337 337 334
309 331 346 341 342 349 350 345 344 341 339 341 343 347 347 347 352 354 354 355 354 350 345 337 333 333 334 334 333 333 334 333 330
281 302 321 334 341 343 343 340 339 339 337 337 340 344 347 346 350 355 353 352 351 347 342 338 334 332 331 331 330 330 331 330 327
268 293 315 329 338 340 339 334 333 334 336 335 337 343 344 346 350 349 351 350 348 346 342 337 335 334 331 329 328 329 329 327 324
260 281 301 322 336 339 341 340 338 334 333 335 334 339 345 348 348 348 348 346 344 341 339 337 336 333 330 329 328 326 326 325 323
254 273 279 301 317 335 343 345 338 331 333 333 335 338 341 343 344 345 343 341 341 340 339 337 333 331 331 330 327 325 324 323 321
257 255 258 281 310 327 337 343 338 334 336 332 333 329 334 337 338 340 341 341 341 339 337 333 330 330 330 329 326 325 323 321 321
253 250 250 274 297 306 321 331 334 328 333 337 333 328 327 333 337 337 337 337 335 335 332 331 329 328 328 326 326 325 323 322 320
257 250 249 261 291 302 311 326 330 333 332 333 336 337 336 329 327 334 334 337 334 332 328 327 329 327 325 324 325 324 322 321 320
262 252 245 258 281 297 308 321 327 329 332 331 333 334 334 334 329 325 329 330 328 327 329 326 325 326 326 325 324 322 321 320 318